Regional Weather Roundup
Issued by NWS

Home | Current Version | Previous Version | Graphics & Text | Print | Product List | Glossary On
Versions: 1 2 3 4 5 6 7 8 9 10 11 12 13 14 15 16 17 18 19 20 21 22 23 24 25 26 27 28 29 30 31 32 33 34 35 36 37 38 39 40 41 42 43 44 45 46 47 48 49 50
000
ASUS45 KCYS 300310
RWRWY

WYOMING REGIONAL WEATHER ROUNDUP
NATIONAL WEATHER SERVICE CHEYENNE WY
900 PM MDT MON MAY 29 2017

NOTE:  "FAIR" INDICATES FEW OR NO CLOUDS BELOW 12,000 FEET
WITH NO SIGNIFICANT WEATHER AND/OR OBSTRUCTIONS TO VISIBILITY.

WYZ001-300400-
YELLOWSTONE NATIONAL PARK

CITY           SKY/WX    TMP DP  RH WIND       PRES   REMARKS
LK YELLOWSTONE   N/A     45  36  70 CALM      30.30S
W YELLOWSTONE  NOT AVBL

$$
WYZ002>013-054>058-071-098>099-300400-
NORTHERN WYOMING

CITY           SKY/WX    TMP DP  RH WIND       PRES   REMARKS
JACKSON        FAIR      55  28  35 N8        30.21R
CODY           FAIR      61  34  36 CALM      30.19S
GREYBULL       FAIR      67  29  24 NW9       30.11R
WORLAND        FAIR      55  42  61 N6        30.13R
SHERIDAN       FAIR      50  43  77 W3        30.15S
BUFFALO        FAIR      58  33  39 W3        30.20R
GILLETTE       FAIR      50  32  50 NW9       30.15S
HULETT         FAIR      55  28  35 CALM      30.16R
NEWCASTLE      FAIR      54  27  35 N3        30.15S

$$
WYZ014>020-022>026-101>103-300400-
CENTRAL WYOMING

CITY           SKY/WX    TMP DP  RH WIND       PRES   REMARKS
BIG PINEY      FAIR      54  39  57 NW3       30.24R
PINEDALE       CLOUDY    59  32  36 S10       30.25R
DUBOIS         FAIR      52  36  54 SE9       30.28R
LANDER         MOCLDY    61  42  49 NW3       30.19S
RIVERTON       FAIR      60  39  45 NE5       30.20S
CASPER         FAIR      52  43  71 NE8       30.21R
DOUGLAS        FAIR      52  38  58 N9        30.20R

$$
WYZ021-027>030-104>119-300400-
SOUTHERN WYOMING

CITY           SKY/WX    TMP DP  RH WIND       PRES   REMARKS
EVANSTON       FAIR      60  33  36 N8        30.22R
KEMMERER         N/A     55  34  44 N9        30.25S
FORT BRIDGER   CLEAR     59  27  29 E7        30.25R
ROCK SPRINGS   FAIR      55  34  45 E12       30.22R
DIXON            N/A     54  39  57 NE9       30.25R
RAWLINS        FAIR      50  39  66 NE9       30.26R
SARATOGA       FAIR      54  36  50 CALM      30.28R
LARAMIE        CLOUDY    52  36  54 S5        30.27R
CHEYENNE       FAIR      55  41  59 SE3       30.24R
TORRINGTON     FAIR      57  37  47 N9        30.14R
PINE BLUFFS    FAIR      54  43  66 CALM      30.21S

$$



USA.gov is the U.S. government's official web portal to all federal, state and local government web resources and services.